Location: 22
(39.7117°N, 89.5929°W)
Time: 07:27:27
(UTC-06:00)

SR - All Passes

Search period start: 28 November 2023 00:00
Search period end: 08 December 2023 00:00
Orbit: 571 x 872 km, 66.7° (Epoch: 28 November)

Date Brightness Start Highest point End Pass type
(mag) Time Alt. Az. Time Alt. Az. Time Alt. Az.
28 Nov - 11:32:04 10° SE 11:35:40 18° ESE 11:39:26 10° ENE daylight
28 Nov - 13:11:39 10° SW 13:17:01 63° WNW 13:22:47 10° NNE daylight
28 Nov - 14:57:42 10° WNW 15:00:15 13° NW 15:02:50 10° N daylight
28 Nov - 20:12:24 10° N 20:15:57 16° NE 20:19:24 10° ENE visible
28 Nov - 21:53:03 10° NNW 21:58:54 83° ENE 22:04:20 10° SSE night (unlit)
28 Nov - 23:37:25 10° WNW 23:39:59 13° W 23:42:29 10° SW night (unlit)
29 Nov - 12:20:10 10° SSW 12:25:30 67° ESE 12:31:14 10° NE daylight
29 Nov - 14:03:47 10° W 14:08:03 22° NW 14:12:29 10° N daylight
29 Nov - 21:01:42 10° NNW 21:07:14 43° NE 21:12:27 10° SE night (unlit)
29 Nov - 22:44:09 10° NW 22:48:58 28° WSW 22:53:31 10° SSW night (unlit)
30 Nov - 11:29:29 10° S 11:34:14 32° ESE 11:39:15 10° NE daylight
30 Nov - 13:10:59 10° WSW 13:16:06 38° NW 13:21:31 10° NNE daylight
30 Nov - 20:10:39 10° N 20:15:19 24° NE 20:19:47 10° E visible
30 Nov - 21:52:05 10° NW 21:57:44 59° WSW 22:03:01 10° SSE night (unlit)
01 Dec - 10:40:06 10° SE 10:43:10 15° ESE 10:46:21 10° ENE daylight
01 Dec - 12:18:57 10° SW 12:24:22 73° WNW 12:30:12 10° NNE daylight
01 Dec - 14:04:20 10° WNW 14:07:27 15° NW 14:10:37 10° N daylight
01 Dec - 19:20:07 10° N 19:23:09 14° NE 19:26:07 10° ENE visible
01 Dec - 21:00:28 10° NNW 21:06:16 71° ENE 21:11:40 10° SE visible
01 Dec - 22:44:11 10° WNW 22:47:30 16° WSW 22:50:41 10° SW night (unlit)
02 Dec - 11:27:38 10° S 11:32:55 56° ESE 11:38:34 10° NE daylight
02 Dec - 13:10:45 10° WSW 13:15:17 25° NW 13:20:01 10° N daylight
02 Dec - 20:09:09 10° NNW 20:14:32 37° NE 20:19:35 10° ESE visible
02 Dec - 21:51:21 10° NW 21:56:26 33° WSW 22:01:11 10° S night (unlit)
03 Dec - 10:37:11 10° SSE 10:41:40 27° ESE 10:46:26 10° NE daylight
03 Dec - 12:18:08 10° SW 12:23:23 44° NW 12:28:57 10° NNE daylight
03 Dec - 19:18:11 10° N 19:22:32 21° NE 19:26:43 10° E visible
03 Dec - 20:59:23 10° NNW 21:05:07 70° WSW 21:10:27 10° SSE visible
04 Dec - 09:48:21 10° SE 09:50:39 13° E 09:53:00 10° ENE daylight
04 Dec - 11:26:14 10° SSW 11:31:43 86° WNW 11:37:33 10° NNE daylight
04 Dec - 13:11:03 10° W 13:14:36 17° NW 13:18:17 10° N daylight
04 Dec - 18:27:53 10° NNE 18:30:18 12° NE 18:32:39 10° ENE visible
04 Dec - 20:07:50 10° NNW 20:13:34 60° ENE 20:18:54 10° SE visible
04 Dec - 21:51:05 10° WNW 21:54:57 19° WSW 21:58:39 10° SSW night (unlit)
05 Dec - 10:35:06 10° S 10:40:17 47° ESE 10:45:49 10° NE daylight
05 Dec - 12:17:43 10° WSW 12:22:30 28° NW 12:27:31 10° N daylight
05 Dec - 19:16:36 10° NNW 19:21:46 32° NE 19:26:38 10° ESE visible
05 Dec - 20:58:32 10° NW 21:03:49 40° WSW 21:08:45 10° S visible
06 Dec - 09:44:53 10° SSE 09:49:05 23° ESE 09:53:30 10° NE daylight
06 Dec - 11:25:16 10° SW 11:30:39 52° NW 11:36:21 10° NNE daylight
06 Dec - 13:12:20 10° NW 13:14:03 11° NW 13:15:48 10° NNW daylight
06 Dec - 18:25:43 10° N 18:29:42 19° NE 18:33:32 10° E visible
06 Dec - 20:06:40 10° NNW 20:12:27 82° WSW 20:17:47 10° SSE visible
07 Dec - 08:57:22 10° ESE 08:58:06 10° E 08:58:50 10° E daylight
07 Dec - 10:33:32 10° SSW 10:39:01 82° ESE 10:44:52 10° NNE daylight
07 Dec - 12:17:47 10° W 12:21:45 19° NW 12:25:50 10° N daylight
07 Dec - 17:35:53 10° NNE 17:37:23 11° NE 17:38:52 10° NE visible
07 Dec - 19:15:12 10° NNW 19:20:49 51° NE 19:26:04 10° SE visible
07 Dec - 20:58:03 10° NW 21:02:21 23° WSW 21:06:26 10° SSW visible
